Location: Bas-Clignon
(44.2000°N, 6.6333°E)
Time: 12:14:20
(UTC+00:00)

Cosmos 1892 Rocket - Pass Details

Date: 03 February 2023
Orbit: 605 x 632 km, 82.5° (Epoch: 20 March)

Event Time Altitude Azimuth Distance (km) Brightness Sun altitude
Rises 18:40:45 0° 201° (SSW) 2,898 7.3 -20.9°
Reaches altitude 10° 18:43:02 10° 207° (SSW) 1,992 6.5 -21.3°
Maximum altitude 18:47:18 48° 282° (WNW) 820 4.5 -22.0°
Drops below altitude 10° 18:51:35 10° 357° (N) 1,991 6.2 -22.8°
Sets 18:53:52 0° 4° (N) 2,896 7.0 -23.2°
